This is the latest recevied weather packets stored in our database for station/object W0WFX-2. If no packets are shown the sender has not sent any weather packets the latest 10 day(s).
| Time | Temp. | Humidity | Pressure | Rain* | Wind** | Luminosity | Snow |
|---|---|---|---|---|---|---|---|
| 1788014273 | 23.89° C | 65% | 1017.7 hPa | 0 mm | - | 153 W/m² | - |
| 1788013969 | 23.89° C | 65% | 1017.7 hPa | 0 mm | - | 144 W/m² | - |
| 1788013663 | 23.89° C | 66% | 1017.7 hPa | 0 mm | - | 141 W/m² | - |
| 1788013358 | 23.33° C | 66% | 1018 hPa | 0 mm | - | 139 W/m² | - |
| 1788013057 | 23.33° C | 67% | 1017.8 hPa | 0 mm | - | 132 W/m² | - |
| 1788012756 | 23.33° C | 67% | 1017.8 hPa | 0 mm | - | 124 W/m² | - |
| 1788012452 | 23.33° C | 67% | 1018 hPa | 0 mm | - | 117 W/m² | - |
| 1788012151 | 22.78° C | 67% | 1018.1 hPa | 0 mm | - | 111 W/m² | - |
| 1788011851 | 22.78° C | 69% | 1018 hPa | 0 mm | - | 107 W/m² | - |
| 1788011549 | 22.78° C | 69% | 1018.2 hPa | 0 mm | - | 100 W/m² | - |
| 1788011245 | 22.22° C | 68% | 1018.1 hPa | 0 mm | - | 93 W/m² | - |
| 1788010944 | 22.22° C | 70% | 1018.1 hPa | 0 mm | - | 102 W/m² | - |
| 1788010639 | 22.22° C | 69% | 1018.2 hPa | 0 mm | - | 85 W/m² | - |
| 1788010338 | 21.67° C | 70% | 1018.2 hPa | 0 mm | - | 82 W/m² | - |
| 1788010037 | 21.67° C | 71% | 1018.1 hPa | 0 mm | - | 76 W/m² | - |
| 1788009733 | 21.67° C | 72% | 1017.9 hPa | 0 mm | - | 71 W/m² | - |
| 1788009430 | 21.11° C | 72% | 1017.9 hPa | 0 mm | - | 70 W/m² | - |
| 1788009125 | 21.11° C | 72% | 1017.7 hPa | 0 mm | - | 69 W/m² | - |
| 1788008821 | 20.56° C | 72% | 1017.8 hPa | 0 mm | - | 68 W/m² | - |
| 1788008521 | 20.56° C | 74% | 1017.9 hPa | 0 mm | - | 66 W/m² | - |
| 1788008218 | 20.56° C | 73% | 1017.8 hPa | 0 mm | - | 62 W/m² | - |
| 1788007916 | 20.56° C | 74% | 1017.6 hPa | 0 mm | - | 59 W/m² | - |
| 1788007616 | 20° C | 75% | 1017.7 hPa | 0 mm | - | 54 W/m² | - |
| 1788007316 | 20° C | 75% | 1017.7 hPa | 0 mm | - | 48 W/m² | - |
| 1788007011 | 20° C | 75% | 1017.6 hPa | 0 mm | - | 40 W/m² | - |
* Rain latest hour (hover to see other rain measurements)
** Current wind speed in m/s (hover to see current wind gust speed)